Weather History for Orangeburg, SC

Change the Weather History Date:

Friday, November 21, 2014

  Actual Average Record
Temperature  
Mean Temperature 52 °F 55 °F  
Max Temperature 66 °F 67 °F 81 °F (2011)
Min Temperature 37 °F 43 °F 26 °F (1968)
Degree Days  
Heating Degree Days 13 11  
Month to date heating degree days 292 170  
Since 1 July heating degree days 356 260  
Cooling Degree Days 0 0  
Month to date cooling degree days 5 12  
Year to date cooling degree days 2248 2099  
Growing Degree Days 2 (Base 50)    
Moisture  
Dew Point 29 °F    
Average Humidity 45    
Maximum Humidity 70    
Minimum Humidity 20    
Precipitation  
Precipitation 0.00 in 0.10 in 1.99 in (2005)
Month to date precipitation 0.29 1.99  
Year to date precipitation 40.87 42.48  
Sea Level Pressure  
Sea Level Pressure 30.36 in    
Wind  
Wind Speed 5 mph (NNE)    
Max Wind Speed 14 mph    
Max Gust Speed 19 mph    
Visibility 10 miles    
Events      
T = Trace of Precipitation, MM = Missing Value Source: NWS Daily Summary

Daily Weather History Graph

Daily Weather History Graph

Search for Another Location

Airport:

Trip Planner

Search our weather history database for the weather conditions in past years. The results will help you decide how hot, cold, wet, or windy it might be!

Date:

Astronomy

Nov. 21, 2014 Rise Set
Actual Time 7:00 AM EST 5:17 PM EST
Civil Twilight 6:33 AM EST 5:44 PM EST
Nautical Twilight 6:03 AM EST 6:14 PM EST
Astronomical Twilight 5:33 AM EST 6:44 PM EST
Moon 5:58 AM EST (11/21) 4:58 PM EST (11/21)
Length of Visible Light 11h 10m
Length of Day
10h 17m
Waning Crescent, 1% of the Moon is Illuminated
Nov 21
Waning Crescent
Nov 22
New
Nov 29
First Quarter
Dec 6
Full
Dec 14
Last Quarter

Hourly Weather History & Observations

Time (EST) Temp. Windchill Dew Point Humidity Pressure Visibility Wind Dir Wind Speed Gust Speed Precip Events Conditions
12:53 AM 44.1 °F 42.5 °F 36.0 °F 73% 30.25 in 10.0 mi WSW 3.5 mph - N/A   Clear
1:53 AM 48.9 °F - 36.0 °F 61% 30.25 in 10.0 mi WNW 5.8 mph - N/A   Clear
2:53 AM 46.9 °F - 35.1 °F 63% 30.25 in 10.0 mi West 3.5 mph - N/A   Clear
3:53 AM 46.0 °F 43.9 °F 34.0 °F 63% 30.25 in 10.0 mi NW 4.6 mph - N/A   Clear
4:53 AM 43.0 °F 41.3 °F 34.0 °F 71% 30.27 in 10.0 mi NW 3.5 mph - N/A   Clear
5:53 AM 42.1 °F - 33.1 °F 70% 30.29 in 10.0 mi Calm Calm - N/A   Clear
6:53 AM 41.0 °F 39.0 °F 32.0 °F 70% 30.31 in 10.0 mi NNW 3.5 mph - N/A   Clear
7:53 AM 42.1 °F 40.2 °F 33.1 °F 70% 30.35 in 10.0 mi NNW 3.5 mph - N/A   Clear
8:53 AM 50.0 °F - 30.9 °F 48% 30.38 in 10.0 mi NNE 5.8 mph - N/A   Clear
9:53 AM 55.0 °F - 28.9 °F 37% 30.40 in 10.0 mi North 5.8 mph - N/A   Clear
10:53 AM 60.1 °F - 28.0 °F 30% 30.39 in 10.0 mi North 5.8 mph - N/A   Clear
11:53 AM 64.0 °F - 25.0 °F 23% 30.38 in 10.0 mi NNE 9.2 mph - N/A   Clear
12:53 PM 64.9 °F - 25.0 °F 22% 30.36 in 10.0 mi North 10.4 mph - N/A   Clear
1:53 PM 64.9 °F - 27.0 °F 24% 30.35 in 10.0 mi NE 6.9 mph - N/A   Clear
2:53 PM 64.9 °F - 23.0 °F 20% 30.35 in 10.0 mi NE 8.1 mph - N/A   Clear
3:53 PM 64.9 °F - 24.1 °F 21% 30.37 in 10.0 mi NNE 9.2 mph - N/A   Clear
4:53 PM 61.0 °F - 27.0 °F 27% 30.39 in 10.0 mi ENE 4.6 mph - N/A   Clear
5:53 PM 55.0 °F - 27.0 °F 34% 30.40 in 10.0 mi ENE 3.5 mph - N/A   Clear
6:53 PM 52.0 °F - 28.0 °F 40% 30.43 in 10.0 mi ENE 5.8 mph - N/A   Clear
7:53 PM 51.1 °F - 26.1 °F 38% 30.44 in 10.0 mi East 4.6 mph - N/A   Clear
8:53 PM 48.9 °F - 24.1 °F 38% 30.45 in 10.0 mi East 5.8 mph - N/A   Clear
9:53 PM 46.9 °F - 24.1 °F 41% 30.46 in 10.0 mi East 4.6 mph - N/A   Clear
10:53 PM 44.1 °F 41.5 °F 25.0 °F 47% 30.47 in 10.0 mi ENE 4.6 mph - N/A   Clear
11:53 PM 43.0 °F 38.8 °F 23.0 °F 45% 30.48 in 10.0 mi ENE 6.9 mph - N/A   Clear